Great Falls International Airport
KGTF : rendu visible

Aérodrome :











RETROUVEZ-NOUS SUR...

 
LOGIN :

S'inscrire | Disclaimer

   EN    FR    IT 

 









Légende :    VFR   VFR Marginal   IFR   IFR Intensif   IFR Très Intensif
Visi : 
Plafond : 
>= 8 km
>= 3000ft
5 à 8 km
1000 à 3000 ft
1500m à 5 km
500 à 1000 ft
800 à 1500m
200 à 500 ft
< 800m
< 200 ft
Symboles :   Orages  Brouillard  Fortes neiges  Fortes précipitations  Vent > 20 kt






- Altitude de l'aérodrome : 3680 ft
- Code IATA : GTF


KGTF - Great Falls International

DERNIER METAR :
  • 290553Z 22014KT 10SM CLR 03/M05 A2985 RMK AO2 SLP124 T00281050 10117 20006 58006

METARs EXPIRÉS :
  • 290453Z 21011KT 10SM CLR 02/M06 A2986 RMK AO2 SLP132 T00221056
  • 290353Z 22013KT 10SM CLR 04/M06 A2987 RMK AO2 SLP135 T00391056

TAF KGTF
Valide du 29 à 06h jusqu'au 30 à 06h UTC


290534Z 2906/3006 21010KT P6SM FEW080
FM291800 23015G23KT P6SM SCT080
FM300200 21010KT P6SM SCT040 BKN080



MET'MAP, la Météo Aéronautique d'un coup d'oeil ! - Copyright ORBIFLY Décembre 2007 - Disclaimer

ORBIFLY MET'MAP TEAM :

Programmation & Développement : Alexandra Zaïnal
Sur une idée originale de : Baudouin d'Aumeries
Assistance à la programmation : Marc-Olivier Méhu
Soutien technique & logistique : Manuel Goepfert

Contact : metmap@orbifly.com




SOURCES & CREDITS :

   NOAA       Earth
Advisory